Hourly Data Report for April 22, 2020

TORONTO CITY
ONTARIO
Current Station Operator: ECCC - MSC

43°40'00.000" N
79°24'00.000" W
112.50 m
6158355
71508
XTO

Download Data

Hourly Data (April 2020)
Hourly Data Report for April 22, 2020
TIME
LST
Temp Definition
°C
Dew Point Definition
°C
Rel Hum Definition
%
Precip. Amount Definition
mm

Wind Dir Definition
10's deg

Wind Spd Definition
km/h
Visibility Definition
km
Stn Press Definition
kPa
Hmdx Definition


Wind Chill Definition


Weather Definition


00:00 -0.8 -7.5 61 0.0       99.67     LegendNANA
01:00 -0.9 -7.1 63 0.0       99.68     LegendNANA
02:00 -1.1 -7.9 60 0.0       99.70     LegendNANA
03:00 -1.3 -7.6 62 0.0       99.72     LegendNANA
04:00 -1.3 -8.2 59 0.0       99.77     LegendNANA
05:00 -1.6 -8.9 57 0.0       99.82     LegendNANA
06:00 -1.7 -8.8 58 0.0       99.92     LegendNANA
07:00 -0.9 -9.1 54 0.0       100.02     LegendNANA
08:00 0.1 -13.6 35 0.0       100.09     LegendNANA
09:00 1.5 -12.8 34 0.0       100.14     LegendNANA
10:00 2.5 -12.9 31 0.0       100.16     LegendNANA
11:00 3.7 -11.7 31 0.0       100.18     LegendNANA
12:00 4.6 -12.2 29 0.3       100.14     LegendNANA
13:00 5.4 -10.3 31 0.2       100.13     LegendNANA
14:00 5.9 -11.7 27 0.0       100.12     LegendNANA
15:00 5.5 -12.9 25 0.2       100.09     LegendNANA
16:00 5.8 -12.0 26 0.3       100.08     LegendNANA
17:00 5.7 -13.4 24 0.0       100.13     LegendNANA
18:00 4.7 -12.5 27 0.2       100.14     LegendNANA
19:00 3.6 -12.3 30 0.0       100.23     LegendNANA
20:00 2.9 -12.6 31 0.0       100.29     LegendNANA
21:00 2.0 -12.8 32 0.0       100.32     LegendNANA
22:00 1.5 -13.6 31 0.0       100.34     LegendNANA
23:00 0.6 -11.6 39 0.0       100.33     LegendNANA

Notes on Data Quality.

Legend

  • E = Estimated
  • M = Missing
  • NA = Not Available*
  • [empty] = Indicates an unobserved value
Date modified: